NIMBUS 2 DEB, 31142

Orbit data source: Space-Track

NIMBUS 2 DEB, 31142 is space debris in SSO originally from a launch on Sun, 15 May 1966 UTC launched from the Air Force Western Test Range (AFWTR). Debris objects in space refer to the collection of defunct objects orbiting the Earth. Examples of debris include non-operational satellites, rocket bodies, and fragments generated from explosions, collisions, or faulty payload assembly.

Loading next visibility...
Identifier
31142, 1966-040AQ
Orbit
SSO
Country
Flag of USUS
Related business
Manufacturer
Unknown
Mission
Spacecraft
Bus & Motor
Unknown
Mass
Unknown
Launch date (UTC)
1966-05-15 (60 years ago)
Launch vehicle
Unknown
Launch site
Air Force Western Test Range (AFWTR)
Object type
Payload
Rocket body
Debris
Shape & HBR
Unknown shape, 0.1 m
Radar Cross Section
Medium (>0.1 m² and <1 m²)

Expand to show TLE details & history
Last TLE update: 4 days ago

TLE from 4 days ago
0 NIMBUS 2 DEB
1 31142U 66040AQ  26170.03084346  .00001111  00000-0  17812-2 0  9996
2 31142 100.6004 193.7608 0054521 166.3108 222.2133 13.50926479943120
Epoch: 2026-06-19T00:44Z
TLE epoch observation values (Epoch: 2026-06-19T00:44:24.874Z)
Latitude
27.62637°
Longitude
-90.20082°
Altitude
1,102.272 km
Speed
7.289 km/s
True Right ascension
12h 32m 40s
True Declination
27° 29' 31"
Sunlit
Object was in daylight at epoch
Visualization orbit readout
Latitude
Unknown
Longitude
Unknown
Altitude
Unknown
Speed
Unknown
Apparent Right ascension
Unknown
Apparent Declination
Unknown
Sunlit
N/A
Visualization observer readout
Local Sidereal Time
02:14:50
Azimuth
Unknown
Elevation
Unknown
Doppler factor
Unknown
Orbital elements
Apogee altitude
1,106.787 km
Perigee altitude
1,025.613 km
Semi-major axis
7,444.337 km
Eccentricity
0.00545
Inclination
100.6004°
RAAN
193.7608°
Arg. of periapsis
166.3108°
True anomaly
221.79564°
Mean anomaly
222.2133°
Eccentric anomaly
222.00426°
Mean motion
3.37912 °/min
Orbital period
106.54 mins
BSTAR
0.0017812
Loading maneuver chart data...
Computing Atmospheric mass density...
Loading historical data...
Loading historical data...
Loading historical data...
Loading historical data...
Loading historical data...
Loading historical data...
Loading historical data...

Documentation

Showing up to 5 results
|